Regional Weather Roundup
Issued by NWS Newport/Morehead, NC

Current Version | Previous Version | Text Only | Print | Product List | Glossary On
Versions: 1 2 3 4 5 6 7 8 9 10 11 12 13 14 15 16 17 18 19 20 21 22 23 24 25 26 27 28 29 30 31 32 33 34 35 36 37 38 39 40 41 42 43 44 45 46 47 48 49 50
000
ASUS42 KMHX 261825
RWRMHX
WEATHER ROUNDUP FOR EASTERN NORTH CAROLINA
NATIONAL WEATHER SERVICE NEWPORT/MOREHEAD CITY NC
200 PM EDT FRI AUG 26 2016

NOTE: "FAIR" INDICATES FEW OR NO CLOUDS BELOW 12,000 FEET
WITH NO SIGNIFICANT WEATHER AND/OR OBSTRUCTIONS TO VISIBILITY

NCZ015>017-031-032-045>047-102-103-261900-
NORTH COAST

CITY           SKY/WX    TMP DP  RH WIND       PRES   REMARKS
EDENTON        SUNNY     91  71  51 S6        30.08F
ELIZABETH CITY SUNNY     91  73  55 SW8       30.07F
KITTY HAWK     CLEAR     95  77  56 S5        30.07F HX 109
MANTEO         SUNNY     86  73  65 S12       30.08F

$$

NCZ045>047-081-094-103-104-261900-
CENTRAL COAST

CITY           SKY/WX    TMP DP  RH WIND       PRES   REMARKS
FRISCO         SUNNY     86  71  60 S5        30.10F

$$

NCZ095-097-098-100-101-261900-
SOUTHERN COAST

CITY           SKY/WX    TMP DP  RH WIND       PRES   REMARKS
BEAUFORT       SUNNY     85  72  65 S7        30.10F
CEDAR ISLAND   NOT AVBL
JACKSONVILLE   SUNNY     89  69  51 E6        30.09F HAZE
PINEY ISLAND   NOT AVBL
WILMINGTON     SUNNY     88  72  58 SE6       30.09F


$$

NCZ011>013-027>030-043-044-078>080-089-090>093-098-261900-
COASTAL PLAIN

CITY           SKY/WX    TMP DP  RH WIND       PRES   REMARKS
AHOSKIE        SUNNY     89  74  60 E5        30.06F
CLINTON        SUNNY     92  75  57 E5        30.08F HX 103
ELIZABETHTOWN  CLOUDY    91  72  54 S3        30.08F
GOLDSBORO      MOSUNNY   94  73  50 VRB3      30.06F HX 102
GREENVILLE     SUNNY     93  73  52 S3        30.09S HX 102
HAVELOCK       PTSUNNY   90  73  57 MISG      30.10F
KENANSVILLE    SUNNY     91  73  55 E5        30.09S HX 100
KINSTON        SUNNY     91  72  52 S6        30.09S
NEW BERN       MOSUNNY   89  73  59 SE7       30.10F
RICHLANDS      MOSUNNY   89  74  60 E5        30.09F
ROCKY MOUNT    SUNNY     93  74  53 VRB3      30.07F HX 103
WASHINGTON     SUNNY     89  73  59 SE3       30.08S
WHITEVILLE     MOSUNNY   90  71  53 CALM      30.08F

$$

AMZ130-135-150-152-154-156-158-170-250-252-270-ANZ085-086-088-633-658-670-261900-
MARINE OBSERVATIONS

STATION/POSITION TIME  TEMP    WIND        PRES    WAVE   SWELL
                       AIR SEA DIR/SP/G            HT/PER HT/PER
                 (UTC) (F)     (DEG/KT/KT) (MB)    (FT/S) (FT/S)
CHESAPEAKE LIGHT NOT AVBL
64 E VA BEACH    1750   80 81  210/ 12/ 14 1018.3    3/ 8   2/ 8
DUCK             1800   85 78  200/  9/ 11 1018.0
2 E DUCK         1711      79                N/A     2/ 8
OREGON INLET     1800   83 80  170/ 10/ 12 1018.8
13E OREGON INLT  1800      79                N/A     2/ 8   2/ 8
HATTERAS CG      1800   84 81  160/  5/  6 1018.8
DIAMOND BUOY     1750   82 86   90/  2/  4 1019.4    2/ 8   2/ 8
CAPE LOOKOUT     1800   83     150/  4/  6 1019.0
BEAUFORT LAB     1800   83 81  190/  7/  8 1018.7
30 SE NEW RVR IN 1808   82 85   90/  4/  8 1019.3
30 SE NEW RVR IN 1725      86                N/A     2/ 8
27 SE WRIGHTSVLE 1808   83 84   70/  4/  6 1019.6
5 SE WRIGHTSVLE  1808   83 84  140/  6/  8 1020.3
225 S CAPE HAT   1750   82 84   70/ 21/ 23 1016.4    6/ 6   2/11
41 SE CHARLESTON 1750   82 84   40/ 12/ 14 1018.1    2/ 6   2/ 6

$$




USA.gov is the U.S. government's official web portal to all federal, state and local government web resources and services.